FW4441 Weather Reports


Display with metric or nautical units.
time (UTC)temp
F
wind
direction
speed
MPH
gust
MPH
rain 1hr
in
rain 24hr
in
rain mn
in
humidity
%
barometer
mb
20260831060031 57 22 4.0 5.0 0.00 0.00 0.00 70 1013.4
20260831054531 57 22 3.0 5.0 0.00 0.00 0.00 69 1013.4
20260831053107 58 24 1.0 3.0 0.00 0.00 0.00 68 1013.5
20260831051607 59 45 1.0 2.0 0.00 0.00 0.00 66 1013.5
20260831050030 60 45 0.0 0.0 0.00 0.00 0.00 64 1013.5
20260831044531 61 45 0.0 1.0 0.00 0.00 0.00 64 1013.5
20260831043029 62 44 1.0 4.0 0.00 0.00 0.00 63 1013.4
20260831041537 61 28 1.0 5.0 0.00 0.00 0.00 63 1013.4
20260831040031 62 31 4.0 7.0 0.00 0.00 0.00 63 1013.4
20260831034617 62 29 5.0 8.0 0.00 0.00 0.00 62 1013.2
20260831031531 63 14 5.0 8.0 0.00 0.00 0.00 58 1013.0
20260831030029 64 28 4.0 8.0 0.00 0.00 0.00 57 1013.0
20260831024530 65 358 2.0 5.0 0.00 0.00 0.00 54 1013.0
20260831023105 67 330 3.0 6.0 0.00 0.00 0.00 53 1012.9
20260831021605 68 307 2.0 5.0 0.00 0.00 0.00 52 1012.9
20260831014530 70 249 3.0 7.0 0.00 0.00 0.00 48 1012.9
20260831013028 72 231 6.0 12.0 0.00 0.00 0.00 46 1013.0
20260831011531 74 237 5.0 12.0 0.00 0.00 0.00 43 1013.0
20260831010031 75 246 6.0 12.0 0.00 0.00 0.00 42 1013.0
20260831004532 76 245 6.0 12.0 0.00 0.00 0.00 42 1013.1
20260831001529 77 246 6.0 13.0 0.00 0.00 0.00 40 1013.1
20260831000032 78 251 7.0 13.0 0.00 0.00 0.00 40 1013.2
20260830233030 77 250 7.0 16.0 0.00 0.00 0.00 39 1013.6
20260830231533 76 257 10.0 21.0 0.00 0.00 0.00 39 1013.7
20260830230030 76 274 8.0 18.0 0.00 0.00 0.00 41 1013.9
20260830223145 77 292 7.0 15.0 0.00 0.00 0.00 42 1014.4
20260830221531 77 287 7.0 14.0 0.00 0.00 0.00 43 1014.6
20260830220106 75 280 8.0 14.0 0.00 0.00 0.00 44 1014.7
20260830214531 75 286 9.0 18.0 0.00 0.00 0.00 44 1015.0
20260830211530 74 276 8.0 17.0 0.00 0.00 0.00 45 1015.2
20260830210034 74 280 10.0 19.0 0.00 0.00 0.00 46 1015.2
20260830203030 74 275 10.0 18.0 0.00 0.00 0.00 46 1015.7
20260830201609 74 267 8.0 17.0 0.00 0.00 0.00 46 1015.9
20260830200031 74 272 7.0 13.0 0.00 0.00 0.00 47 1016.1
20260830194605 72 271 6.0 12.0 0.00 0.00 0.00 48 1016.2
20260830190032 73 270 6.0 13.0 0.00 0.00 0.00 50 1016.7
20260830184529 71 270 6.0 11.0 0.00 0.00 0.00 51 1016.9
20260830183032 70 271 5.0 12.0 0.00 0.00 0.00 52 1017.0
20260830181529 69 255 7.0 14.0 0.00 0.00 0.00 54 1017.0
20260830180029 68 269 5.0 11.0 0.00 0.00 0.00 56 1017.1
20260830174530 66 275 6.0 10.0 0.00 0.00 0.00 57 1017.1
20260830173030 65 276 6.0 12.0 0.00 0.00 0.00 58 1017.3
20260830171529 66 279 6.0 11.0 0.00 0.00 0.00 59 1017.4
20260830170032 66 276 5.0 12.0 0.00 0.00 0.00 61 1017.5
20260830163030 62 276 2.0 4.0 0.00 0.00 0.00 69 1017.8
20260830161529 60 29 1.0 5.0 0.00 0.00 0.00 72 1017.9
20260830160031 59 19 1.0 4.0 0.00 0.00 0.00 75 1018.1
20260830153042 54 19 4.0 6.0 0.00 0.00 0.00 83 1018.2
20260830151532 52 161 0.0 3.0 0.00 0.00 0.00 84 1018.1
20260830150146 51 351 2.0 4.0 0.00 0.00 0.00 87 1018.2
20260830144606 49 38 1.0 4.0 0.00 0.00 0.00 88 1018.2
20260830143030 49 45 1.0 3.0 0.00 0.00 0.00 88 1018.1
20260830140028 49 336 0.0 3.0 0.00 0.00 0.00 88 1017.9
20260830134529 49 82 1.0 4.0 0.00 0.00 0.00 87 1017.8
20260830133035 48 358 0.0 3.0 0.00 0.00 0.00 87 1017.7
20260830131529 49 46 1.0 4.0 0.00 0.00 0.00 87 1017.5
20260830130028 48 45 2.0 4.0 0.00 0.00 0.00 85 1017.4
20260830124533 49 45 1.0 3.0 0.00 0.00 0.00 84 1017.4
20260830123104 49 45 2.0 3.0 0.00 0.00 0.00 83 1017.4
20260830121530 48 26 1.0 4.0 0.00 0.00 0.00 83 1017.4
20260830120029 49 353 1.0 4.0 0.00 0.00 0.00 83 1017.4
20260830114646 49 188 0.0 3.0 0.00 0.00 0.00 82 1017.3
20260830113031 49 59 2.0 5.0 0.00 0.00 0.00 81 1017.3
20260830111606 50 120 0.0 3.0 0.00 0.00 0.00 80 1017.3
20260830110032 49 90 0.0 2.0 0.00 0.00 0.00 80 1017.2
20260830104530 50 109 1.0 2.0 0.00 0.00 0.00 79 1017.3
20260830103108 50 26 0.0 2.0 0.00 0.00 0.00 79 1017.3
20260830101608 49 22 1.0 3.0 0.00 0.00 0.00 78 1017.3
20260830100030 50 94 0.0 4.0 0.00 0.00 0.00 77 1017.3
20260830094529 51 169 0.0 2.0 0.00 0.00 0.00 77 1017.3
20260830093032 52 110 1.0 3.0 0.00 0.00 0.00 77 1017.2
20260830090030 50 95 1.0 5.0 0.00 0.00 0.00 80 1017.2
20260830084532 51 112 1.0 3.0 0.00 0.00 0.00 78 1017.2
20260830083031 52 149 1.0 4.0 0.00 0.00 0.00 77 1017.4
20260830081607 52 223 1.0 4.0 0.00 0.00 0.00 77 1017.4
20260830073109 52 305 0.0 4.0 0.00 0.00 0.00 76 1017.4
20260830070030 53 208 1.0 6.0 0.00 0.00 0.00 74 1017.4
20260830064528 53 230 0.0 2.0 0.00 0.00 0.00 74 1017.2
20260830063032 54 207 1.0 5.0 0.00 0.00 0.00 73 1017.3
20260830061530 54 232 2.0 6.0 0.00 0.00 0.00 71 1017.3